Погода Усть-Ишим

Погода Усть-Ишим : погода сейчас, прогноз погоды и архив. Всё, что Вы хотите узнать о погоде Усть-Ишим!

Хотите узнать прогноз погоды Усть-Ишим? Тогда Вам сюда: Погода Усть-Ишим

Поиск расширенной информации на нашем сайте:

Полезная информация: Мебельные фасады из мдф профиля как оформить заказ мебельные фасады на заказ.

Другие новости

Новости СМИ2

Главная страница сайта

Новости сайта

02.10.2013

Напоминаем, что на нашем новом сайте вы можете получить высокодетализированные прогнозы погоды по пунктам России, СНГ и мира (включающие важные для авиации метеовеличины, такие как направление и скорость ветра, видимость, явления погоды, количество и форма облачности, нижняя и верхняя граница облачности), а также ознакомиться с разнообразными материалами по авиационной метеорологии и подборкой полезных ссылок на эту тему.

Сайт Метеоцентр.Азия посвящён разработке технологий оптимизации авиаметеорологического обслуживания, включая проектирование и перспективное создание нескольких автоматизированных авиаметеорологических систем:
- система выпуска высокодетальных прогностических карт явлений погоды для нижнего воздушного пространства по России и ближнему зарубежью;
- система верификации прогнозов TAF (выпускаемых синоптиками официальных АМСГ РФ и ближнего зарубежья) и AUTOTAF (выпускаемых сайтом Метеоцентр.Азия) - выявление ошибок, онлайн-сопоставление с фактической погодой METAR, автоматическое внесение коррективов в прогнозы при резком отклонении фактической погоды от прогноза, подсчёт оправдываемости прогнозов по элементам и в целом;
- система обработки, анализа и отображения авиаметеорологической информации для применения провайдерами метеорологической информации.

Рекомендуем: Копии часов гесс элитные копии часов.

Погода Усть-Ишим - сегодня

Время (UTC), дата Ветер
(°,м/с) 
Видим.   Явления Облачность Т
(°С)
Тd
(°С)
f(%) Тe
(°С)
Pmin
(гПа)
dP
(гПа)
Po
(мм)
O2
(г/м3)
Тmin Tmax R s Состояние
почвы
06 21.06.17 170 (Ю) 50000 м    10/3 600 м верхняя 
[Cu med, cong|Ci sp]
+22.2 +13.4 57 +28  997.7  -0.2  744  274           
09 21.06.17 200 (Ю) 50000 м  гроза без осадков  9/5 600 м кучево-дожд., верхняя 
[Cb cap|Ci sp]
+24.4 +12.5 47 +29  996.6  -1  743  272           
12 21.06.17 130 (ЮВ) 10 км  слаб. ливневой дождь, в посл. час гроза  10/8 600 м кучево-дожд., средняя, верхняя 
[Cb cap|Ac cuf|Ci ing]
+20.3 +17.3 83 +34  996.5  -0.2  743  275           
15 21.06.17 170 (Ю) 50000 м  {ливн. осадки}  10/3 600 м кучево-дожд., верхняя 
[Cb cap|Ci fib]
+20.5 +13.3 63 +27  997.5  743  276    +25.1     
18 21.06.17 170 (Ю) 20000 м  местами туман поземный{ливн. осадки}  10/0 верхняя 
[Ci fib]
+16.7 +13.1 79 +24  998.5  0.9  744  280           
21 21.06.17 тихо ()   20000 м  местами туман поземный  10/0 верхняя 
[Ci fib]
+11.4 +10.8 96 +14  999.2  0.5  744  286           
00 22.06.17 300 (СЗ) 50000 м    4/0 верхняя 
[Ci fib]
+12.4 +12.4 100 +19  999.9  0.8  745  285           
03 22.06.17 350 (С) 50000 м    3/0 верхняя 
[Ci fib]
+19.9 +12.9 64 +26  1000.9  1.2  746  278  +9.7        влажная 
06 22.06.17 330 (СЗ) 50000 м    8/8 600 м 
[Cu Sc]
+21.7 +12.5 56 +26  1001.8  0.9  747  276           
09 22.06.17 310 (СЗ) 50000 м    8/8 600 м 
[Cu hum]
+23.5 +11.6 47 +27  1002.3  0.5  747  275           
12 22.06.17 320 (СЗ) 50000 м    6/4 600 м средняя, верхняя 
[Cu med, cong|Ac cast|Ci]
+25.8 +10.5 38 +28  1002.9  0.6  747  273           
15 22.06.17 тихо ()   50000 м    3/0 средняя 
[Ac lent]
+23.2 +14.6 58 +31  1004.1  1.2  748  275    +26.1       
18 22.06.17 тихо ()   20000 м    ясно 
+18.4 +15.2 82 +27  1005.1  0.9  749  280           
21 22.06.17 290 (З) 20000 м  местами туман поземный  ясно 
+14.2 +13.9 98 +22  1005.9  0.7  750  284           
00 23.06.17 210 (ЮЗ) 50000 м    ясно 
+14.8 +14.6 99 +24  1006.7  0.8  750  284           
03 23.06.17 090 (В) 50000 м    1/0 верхняя 
[Ci sp]
+22.2 +17.1 73 +35  1006.9  0.4  750  276  +12.8        сухая 
06 23.06.17 170 (Ю) 50000 м    10/5 600 м верхняя 
[Cu med, cong|Ci fib]
+26.8 +14.9 48 +35  1006.4  -0.4  750  272           
09 23.06.17 170 (Ю) 50000 м    8/6 600 м верхняя 
[Cu med, cong|Ci fib]
+27.9 +14.1 43 +35  1005.7  -0.7  750  271           
12 23.06.17 250 (З) 6000 м  слаб. ливневой дождь  10/8 600 м кучево-дожд., верхняя 
[Cb cap|Ci sp]
+22.1 +17.9 77 +36  1005.2  -0.6  749  275           
15 23.06.17 тихо ()   50000 м  {гроза, ливн. осадки}  10/8 300 м кучево-дожд., верхняя 
[Cb cap|Ci fib]
+20.7 +19.4 92 +38  1004.5  -0.8  749  276    +28.1     
18 23.06.17 060 (СВ) 20000 м  туман поземный{гроза, ливн. осадки}  8/8 600 м кучево-дожд. 
[Cb cap]
+17.3 +17.3 100 +32  1004.7  0.2  749  280           
21 23.06.17 100 (В) 20000 м    10/8 600 м кучево-дожд., средняя 
[Cb cap|As op]
+19.2 +14.4 74 +28  1004.3  -0.4  748  279           
00 24.06.17 080 (В) 50000 м    9/8 300 м средняя 
[St|Ac As]
+19 +14.3 74 +29  1003.5  -0.8  748  279           
03 24.06.17 110 (В) 50000 м    9/5 1000 м средняя, верхняя 
[Sc diur, vesp|Ac As|Ci sp]
+21.4 +15.5 69 +31  1003.5  0.1  748  276  +17.2        влажная 
06 24.06.17 090 (В) 50000 м    10/6 600 м кучево-дожд., верхняя 
[Cb cap|Ci fib]
+24.1 +16.1 61 +35  1002.8  -0.6  747  273           
Время (UTC), дата Ветер
(°,м/с) 
Видим.   Явления Облачность Т
(°С)
Тd
(°С)
f(%) Тe
(°С)
Pmin
(гПа)
dP
(гПа)
Po
(мм)
O2
(г/м3)
Тmin Tmax R s Состояние
почвы

Для получения пояснительной информации подведите курсор к названию столбца.

ПОГОДА Усть-Ишим - архив

Всё, что Вы хотите узнать о погоде Усть-Ишим - удобно и подробно!

Выберите нужную дату (начиная с 1 января 2015* года) и нажмите кнопку "Найти".
Будут отображены архивные сводки погоды по пункту Усть-Ишим, начиная с указанной даты.


Отображать данные в формате CSV (для использования в таблицах Excel)


Внимание! Наш архив погоды предназначен исключительно для личного некоммерческого использования в познавательных целях. Если Вам необходимы официальные справки о состоянии погоды (для производственных, юридических, коммерческих и т.п. целей), обращайтесь в органы Росгидромета.

*Примечание: данная дата относится к архиву по метеостанциям СССР (Россия, СНГ, Балтия).
Архив по метеостанциям Зарубежной Европы и Азии (кроме Китая) хранится 10 дней, по другим регионам земного шара (Китай, Африка, Америка, Австралия, Океания) - 1 день.

Усть-Ишим - район местоположения метеостанции


Название, широта, долгота, высота метеостанции:
Усть-Ишим 57.7°ш. 71.2°д. 56 м над ур. моря [Российская Федерация]

Дополнительная информация

В oтличие oт бoльшинства пoгoдных сайтoв мы публикуем пoдрoбную метеoинфoрмацию в детальнoм прoфессиoнальнoм фoрмате.

Характеристики температуры и влажнoсти вoздуха измеряются на высoте 2 м в тени вдали oт зданий и деревьев.
Скoрoсть ветра измеряется на высoте 10 м (на урoвне рoста челoвека скoрoсть ветра ниже в 1.5-2 раза). Если метеoстанция нахoдится в гoрoде или в лесу, тo скoрoсть ветра занижена на 2-4 м/с пo сравнению с oткрытым местoм. Скoрoсть ветра над акватoриями крупных рек и oзёр, а также на вершинах хoлмoв на 2-5 м/с выше, чем в oбычных услoвиях.
Атмoсфернoе давление в разных тoчках местнoсти мoжет значительнo oтличаться oт давления на метеoстанции, в зависимoсти oт услoвий рельефа (при пoдъёме на 10 м давление пoнижается примернo на 1 мм рт.ст.).